BDR661 OEJN-HSPN

Flight info

Callsign BDR661
Flight time 0h 43m
Altitude 24000
Route KAROX L311 MAHDI Q563 PSD
Aircraft B738/M-SDE2E3FGHIRWXY/LB1

Departure

Time 2026-05-06 15:43
Airport King Abdulaziz International Airport (OEJN)

Arrival

Time 2026-05-06 16:26
Airport Port Sudan New International Airport (HSPN)
Time Latitude Longitude Altitude Speed Heading
2026-05-06 15:28 21.69628 39.13519 24 ft 0 kts 73°
2026-05-06 15:34 21.69625 39.13511 24 ft 3 kts 76°
2026-05-06 15:34 21.69621 39.13490 28 ft 3 kts 84°
2026-05-06 15:34 21.69620 39.13468 29 ft 3 kts 95°
2026-05-06 15:34 21.69623 39.13447 26 ft 3 kts 108°
2026-05-06 15:35 21.69627 39.13435 29 ft 1 kts 114°
2026-05-06 15:35 21.69628 39.13433 29 ft 0 kts 114°
2026-05-06 15:37 21.69628 39.13434 29 ft 1 kts 114°
2026-05-06 15:37 21.69614 39.13443 28 ft 4 kts 162°
2026-05-06 15:37 21.69572 39.13444 24 ft 9 kts 184°
2026-05-06 15:38 21.69507 39.13456 25 ft 10 kts 158°
2026-05-06 15:38 21.69439 39.13466 25 ft 10 kts 205°
2026-05-06 15:38 21.69403 39.13404 26 ft 10 kts 245°
2026-05-06 15:38 21.69379 39.13335 26 ft 10 kts 250°
2026-05-06 15:39 21.69336 39.13287 25 ft 9 kts 194°
2026-05-06 15:39 21.69273 39.13301 26 ft 9 kts 159°
2026-05-06 15:39 21.69211 39.13325 30 ft 11 kts 160°
2026-05-06 15:39 21.69109 39.13365 28 ft 19 kts 159°
2026-05-06 15:40 21.68980 39.13417 27 ft 20 kts 160°
2026-05-06 15:40 21.68854 39.13467 27 ft 19 kts 159°
2026-05-06 15:40 21.68731 39.13516 27 ft 19 kts 160°
2026-05-06 15:40 21.68612 39.13564 28 ft 18 kts 160°
2026-05-06 15:41 21.68497 39.13610 28 ft 17 kts 159°
2026-05-06 15:41 21.68387 39.13653 29 ft 17 kts 160°
2026-05-06 15:41 21.68281 39.13697 29 ft 16 kts 159°
2026-05-06 15:41 21.68178 39.13737 30 ft 15 kts 160°
2026-05-06 15:42 21.68079 39.13776 31 ft 15 kts 160°
2026-05-06 15:42 21.67971 39.13817 31 ft 17 kts 166°
2026-05-06 15:42 21.67937 39.13733 32 ft 17 kts 312°
2026-05-06 15:42 21.68019 39.13618 31 ft 24 kts 309°
2026-05-06 15:43 21.68431 39.13414 28 ft 111 kts 340°
2026-05-06 15:43 21.69396 39.13034 149 ft 176 kts 342°
2026-05-06 15:43 21.70563 39.12576 1236 ft 180 kts 340°
2026-05-06 15:43 21.71793 39.12097 1526 ft 196 kts 340°
2026-05-06 15:44 21.73060 39.11595 1622 ft 196 kts 340°
2026-05-06 15:44 21.74349 39.11083 1709 ft 203 kts 340°
2026-05-06 15:44 21.75655 39.10566 1815 ft 201 kts 340°
2026-05-06 15:44 21.77000 39.10037 1961 ft 205 kts 340°
2026-05-06 15:45 21.78272 39.09403 2056 ft 215 kts 325°
2026-05-06 15:45 21.79356 39.08159 2272 ft 245 kts 306°
2026-05-06 15:45 21.79952 39.06369 2412 ft 262 kts 276°
2026-05-06 15:45 21.79664 39.04421 2460 ft 272 kts 246°
2026-05-06 15:46 21.78544 39.02815 2629 ft 265 kts 229°
2026-05-06 15:46 21.77276 39.01377 2731 ft 268 kts 229°
2026-05-06 15:46 21.75979 38.99887 2877 ft 273 kts 230°
2026-05-06 15:46 21.74713 38.98405 2973 ft 268 kts 230°
2026-05-06 15:47 21.73446 38.96895 3112 ft 276 kts 230°
2026-05-06 15:47 21.72174 38.95360 3226 ft 272 kts 231°
2026-05-06 15:47 21.70923 38.93838 3331 ft 272 kts 230°
2026-05-06 15:47 21.69679 38.92317 3448 ft 271 kts 230°
2026-05-06 15:48 21.68422 38.90780 3580 ft 274 kts 231°
2026-05-06 15:48 21.67161 38.89243 3698 ft 273 kts 228°
2026-05-06 15:48 21.65764 38.87854 3804 ft 276 kts 221°
2026-05-06 15:48 21.64254 38.86571 3941 ft 276 kts 219°
2026-05-06 15:49 21.62735 38.85314 4047 ft 277 kts 220°
2026-05-06 15:49 21.61217 38.84056 4165 ft 275 kts 219°
2026-05-06 15:49 21.59698 38.82788 4292 ft 275 kts 219°
2026-05-06 15:49 21.58198 38.81526 4396 ft 274 kts 219°
2026-05-06 15:50 21.56692 38.80252 4540 ft 277 kts 220°
2026-05-06 15:50 21.55169 38.78960 4656 ft 279 kts 220°
2026-05-06 15:50 21.53656 38.77672 4771 ft 276 kts 219°
2026-05-06 15:50 21.52148 38.76389 4886 ft 277 kts 219°
2026-05-06 15:51 21.50637 38.75103 5015 ft 279 kts 219°
2026-05-06 15:51 21.49118 38.73809 5123 ft 277 kts 219°
2026-05-06 15:51 21.47607 38.72521 5250 ft 279 kts 218°
2026-05-06 15:51 21.46086 38.71225 5367 ft 277 kts 219°
2026-05-06 15:52 21.44566 38.69930 5484 ft 280 kts 218°
2026-05-06 15:52 21.43041 38.68631 5607 ft 280 kts 218°
2026-05-06 15:52 21.41521 38.67337 5724 ft 279 kts 218°
2026-05-06 15:52 21.39995 38.66036 5849 ft 282 kts 218°
2026-05-06 15:53 21.38456 38.64726 5964 ft 283 kts 218°
2026-05-06 15:53 21.36915 38.63415 6089 ft 285 kts 218°
2026-05-06 15:53 21.35354 38.62087 6219 ft 286 kts 218°
2026-05-06 15:53 21.33815 38.60778 6321 ft 281 kts 218°
2026-05-06 15:54 21.32279 38.59471 6442 ft 282 kts 218°
2026-05-06 15:54 21.30734 38.58157 6561 ft 284 kts 218°
2026-05-06 15:54 21.29186 38.56840 6678 ft 283 kts 218°
2026-05-06 15:54 21.27653 38.55537 6784 ft 281 kts 218°
2026-05-06 15:55 21.26113 38.54229 6914 ft 284 kts 218°
2026-05-06 15:55 21.24564 38.52915 7023 ft 284 kts 218°
2026-05-06 15:55 21.23019 38.51604 7136 ft 283 kts 218°
2026-05-06 15:55 21.21467 38.50288 7263 ft 286 kts 218°
2026-05-06 15:56 21.19922 38.48977 7366 ft 281 kts 218°
2026-05-06 15:56 21.18903 38.48113 7450 ft 284 kts 218°
2026-05-06 15:56 21.17366 38.46809 7569 ft 280 kts 218°
2026-05-06 15:56 21.15342 38.45094 7725 ft 282 kts 218°
2026-05-06 15:57 21.13808 38.43794 7841 ft 280 kts 218°
2026-05-06 15:57 21.12278 38.42498 7958 ft 281 kts 218°
2026-05-06 15:57 21.10734 38.41190 8084 ft 284 kts 218°
2026-05-06 15:57 21.09206 38.39895 8198 ft 279 kts 218°
2026-05-06 15:58 21.07678 38.38601 8321 ft 278 kts 218°
2026-05-06 15:58 21.06653 38.37733 8400 ft 281 kts 218°
2026-05-06 15:58 21.05130 38.36445 8518 ft 278 kts 218°
2026-05-06 15:58 21.03607 38.35157 8653 ft 278 kts 219°
2026-05-06 15:59 21.02098 38.33849 8764 ft 280 kts 223°
2026-05-06 15:59 21.00726 38.32339 9049 ft 285 kts 228°
2026-05-06 15:59 20.99386 38.30763 9764 ft 289 kts 228°
2026-05-06 15:59 20.98016 38.29174 10341 ft 296 kts 227°
2026-05-06 16:00 20.96555 38.27503 10500 ft 318 kts 227°
2026-05-06 16:00 20.95023 38.25759 10835 ft 331 kts 227°
2026-05-06 16:00 20.93421 38.23899 11370 ft 337 kts 227°
2026-05-06 16:00 20.91864 38.22074 12090 ft 336 kts 227°
2026-05-06 16:01 20.90264 38.20197 12859 ft 336 kts 226°
2026-05-06 16:01 20.88701 38.18363 13452 ft 343 kts 227°
2026-05-06 16:01 20.87079 38.16463 13979 ft 349 kts 227°
2026-05-06 16:01 20.85408 38.14506 14570 ft 353 kts 227°
2026-05-06 16:02 20.83745 38.12562 15200 ft 355 kts 227°
2026-05-06 16:02 20.82097 38.10635 15873 ft 357 kts 227°
2026-05-06 16:02 20.80418 38.08673 16566 ft 358 kts 227°
2026-05-06 16:02 20.78728 38.06701 17194 ft 362 kts 227°
2026-05-06 16:03 20.77023 38.04711 17835 ft 364 kts 227°
2026-05-06 16:03 20.75284 38.02683 18442 ft 367 kts 227°
2026-05-06 16:03 20.73580 38.00695 18970 ft 369 kts 227°
2026-05-06 16:03 20.71836 37.98662 19461 ft 373 kts 228°
2026-05-06 16:04 20.70079 37.96615 19810 ft 374 kts 228°
2026-05-06 16:04 20.68324 37.94571 19836 ft 373 kts 228°
2026-05-06 16:04 20.66584 37.92545 20308 ft 365 kts 228°
2026-05-06 16:04 20.64884 37.90567 21022 ft 359 kts 228°
2026-05-06 16:05 20.63207 37.88617 21750 ft 353 kts 229°
2026-05-06 16:05 20.61558 37.86699 22487 ft 347 kts 229°
2026-05-06 16:05 20.59940 37.84818 23245 ft 341 kts 229°
2026-05-06 16:05 20.58335 37.82952 23688 ft 343 kts 229°
2026-05-06 16:06 20.56702 37.81053 23849 ft 353 kts 229°
2026-05-06 16:06 20.55010 37.79085 23851 ft 364 kts 229°
2026-05-06 16:06 20.53296 37.77094 23846 ft 364 kts 229°
2026-05-06 16:06 20.51584 37.75108 23829 ft 362 kts 229°
2026-05-06 16:07 20.49882 37.73134 23836 ft 362 kts 229°
2026-05-06 16:07 20.48164 37.71140 23700 ft 368 kts 229°
2026-05-06 16:07 20.46517 37.69059 23474 ft 366 kts 232°
2026-05-06 16:07 20.44663 37.67213 23197 ft 369 kts 214°
2026-05-06 16:08 20.42358 37.65988 22974 ft 372 kts 206°
2026-05-06 16:08 20.39953 37.64962 22716 ft 374 kts 204°
2026-05-06 16:08 20.37513 37.63971 22461 ft 375 kts 204°
2026-05-06 16:08 20.35069 37.62987 22206 ft 376 kts 204°
2026-05-06 16:09 20.32622 37.62004 21962 ft 376 kts 204°
2026-05-06 16:09 20.30193 37.61030 21700 ft 369 kts 204°
2026-05-06 16:09 20.27812 37.60076 21417 ft 363 kts 203°
2026-05-06 16:09 20.25464 37.59130 21066 ft 360 kts 203°
2026-05-06 16:10 20.23137 37.58188 20677 ft 356 kts 203°
2026-05-06 16:10 20.20826 37.57247 20251 ft 354 kts 203°
2026-05-06 16:10 20.18527 37.56322 19826 ft 353 kts 200°
2026-05-06 16:10 20.16101 37.55876 19358 ft 357 kts 187°
2026-05-06 16:11 20.13609 37.55759 18789 ft 360 kts 184°
2026-05-06 16:11 20.11093 37.55698 18238 ft 363 kts 184°
2026-05-06 16:11 20.08566 37.55644 17613 ft 364 kts 184°
2026-05-06 16:11 20.06031 37.55593 16986 ft 365 kts 184°
2026-05-06 16:12 20.03482 37.55541 16365 ft 366 kts 183°
2026-05-06 16:12 20.00933 37.55489 15760 ft 367 kts 183°
2026-05-06 16:12 19.98375 37.55432 15155 ft 368 kts 183°
2026-05-06 16:12 19.95851 37.55372 14589 ft 368 kts 183°
2026-05-06 16:13 19.93293 37.55314 14014 ft 368 kts 184°
2026-05-06 16:13 19.90735 37.55253 13424 ft 368 kts 184°
2026-05-06 16:13 19.88178 37.55203 12796 ft 367 kts 183°
2026-05-06 16:13 19.85626 37.55153 12188 ft 366 kts 184°
2026-05-06 16:14 19.83082 37.55097 11579 ft 366 kts 184°
2026-05-06 16:14 19.80540 37.55028 10988 ft 365 kts 183°
2026-05-06 16:14 19.78007 37.54953 10409 ft 364 kts 183°
2026-05-06 16:14 19.75475 37.54859 9833 ft 364 kts 184°
2026-05-06 16:15 19.72945 37.54760 9232 ft 364 kts 183°
2026-05-06 16:15 19.70416 37.54649 8619 ft 363 kts 183°
2026-05-06 16:15 19.67895 37.54530 8039 ft 362 kts 183°
2026-05-06 16:15 19.65390 37.54407 7579 ft 358 kts 183°
2026-05-06 16:16 19.62914 37.54272 7106 ft 355 kts 183°
2026-05-06 16:16 19.60461 37.54128 6647 ft 351 kts 183°
2026-05-06 16:16 19.58031 37.53975 6190 ft 348 kts 183°
2026-05-06 16:16 19.55620 37.53814 5712 ft 346 kts 183°
2026-05-06 16:17 19.53228 37.53647 5342 ft 341 kts 183°
2026-05-06 16:17 19.50899 37.53479 5110 ft 331 kts 183°
2026-05-06 16:17 19.48631 37.53309 4866 ft 324 kts 183°
2026-05-06 16:17 19.46402 37.53131 4624 ft 317 kts 183°
2026-05-06 16:18 19.44222 37.52951 4384 ft 311 kts 184°
2026-05-06 16:18 19.42083 37.52780 4139 ft 306 kts 183°
2026-05-06 16:18 19.39971 37.52615 3895 ft 302 kts 184°
2026-05-06 16:18 19.37888 37.52455 3656 ft 298 kts 183°
2026-05-06 16:19 19.35839 37.52293 3415 ft 294 kts 184°
2026-05-06 16:19 19.33845 37.51910 3162 ft 291 kts 204°
2026-05-06 16:19 19.32215 37.50712 2925 ft 284 kts 231°
2026-05-06 16:19 19.31240 37.48950 2698 ft 275 kts 251°
2026-05-06 16:20 19.30546 37.47098 2585 ft 265 kts 252°
2026-05-06 16:20 19.29906 37.45293 2556 ft 261 kts 253°
2026-05-06 16:20 19.29284 37.43496 2540 ft 259 kts 253°
2026-05-06 16:20 19.28675 37.41696 2571 ft 261 kts 253°
2026-05-06 16:21 19.28346 37.39818 2555 ft 259 kts 274°
2026-05-06 16:21 19.28347 37.37905 2553 ft 260 kts 273°
2026-05-06 16:21 19.28494 37.36056 2549 ft 244 kts 292°
2026-05-06 16:21 19.29264 37.34557 2571 ft 227 kts 306°
2026-05-06 16:22 19.30048 37.33136 2555 ft 220 kts 303°
2026-05-06 16:22 19.30774 37.31783 2567 ft 209 kts 303°
2026-05-06 16:22 19.31494 37.30430 2453 ft 208 kts 303°
2026-05-06 16:22 19.32183 37.29143 2344 ft 198 kts 304°
2026-05-06 16:23 19.32830 37.27891 2180 ft 190 kts 303°
2026-05-06 16:23 19.33446 37.26681 1995 ft 183 kts 303°
2026-05-06 16:23 19.34229 37.25706 1691 ft 164 kts 339°
2026-05-06 16:23 19.35250 37.25370 1522 ft 148 kts 345°
2026-05-06 16:24 19.36194 37.25108 1346 ft 135 kts 347°
2026-05-06 16:24 19.37085 37.24893 1187 ft 132 kts 347°
2026-05-06 16:24 19.37971 37.24681 999 ft 129 kts 349°
2026-05-06 16:24 19.38857 37.24473 836 ft 133 kts 349°
2026-05-06 16:25 19.39761 37.24258 670 ft 131 kts 350°
2026-05-06 16:25 19.40629 37.24052 523 ft 127 kts 348°
2026-05-06 16:25 19.41520 37.23833 315 ft 134 kts 349°
2026-05-06 16:25 19.42435 37.23624 158 ft 135 kts 349°
2026-05-06 16:26 19.43262 37.23432 117 ft 106 kts 348°
2026-05-06 16:26 19.43865 37.23289 119 ft 71 kts 348°
2026-05-06 16:26 19.44253 37.23198 117 ft 36 kts 347°
2026-05-06 16:26 19.44431 37.23201 117 ft 17 kts 358°
2026-05-06 16:27 19.44459 37.23150 118 ft 1 kts 225°
2026-05-06 16:27 19.44445 37.23151 118 ft 3 kts 166°
2026-05-06 16:27 19.44409 37.23161 117 ft 11 kts 166°
2026-05-06 16:27 19.44306 37.23185 117 ft 17 kts 167°
2026-05-06 16:28 19.44194 37.23211 117 ft 16 kts 168°
2026-05-06 16:28 19.44085 37.23238 117 ft 16 kts 167°
2026-05-06 16:28 19.43981 37.23263 117 ft 15 kts 167°
2026-05-06 16:28 19.43881 37.23286 118 ft 14 kts 168°
2026-05-06 16:29 19.43785 37.23309 119 ft 14 kts 167°
2026-05-06 16:29 19.43681 37.23333 118 ft 19 kts 167°
2026-05-06 16:29 19.43541 37.23365 117 ft 21 kts 168°
2026-05-06 16:29 19.43454 37.23453 117 ft 19 kts 82°
2026-05-06 16:30 19.43482 37.23581 141 ft 15 kts 77°
2026-05-06 16:30 19.43494 37.23635 141 ft 11 kts 77°
2026-05-06 16:30 19.43503 37.23704 141 ft 2 kts 118°
2026-05-06 16:30 19.43489 37.23713 141 ft 3 kts 155°
2026-05-06 16:31 19.43470 37.23719 141 ft 3 kts 165°
2026-05-06 16:31 19.43461 37.23721 141 ft 0 kts 167°